Amateur Radio Satellites - All Passes

Search period start: 26 May 2013 02:32
Search period end: 27 May 2013 02:32
Location: Colebrook, 42.0017°N, 73.0973°W

Satellite Date Start Highest point End Downlink Frequencies (MHz)
Time Altitude Azimuth
KITSAT 1 26 May 02:54:14 02:57:16 12° 352° (N) 03:00:17 435.175 FM
RS-15 26 May 02:59:35 03:08:46 32° 255° (WSW) 03:17:51 29.354 - 29.394 USB, Beacon 29.352 USB
MaSat-1 26 May 03:05:08 03:09:48 21° 308° (NW) 03:13:51 437.345 MHz
Oscar 16 26 May 03:07:24 03:12:32 62° 287° (WNW) 03:17:35 437.025 USB, Beacon 2401.1428
AO-27 26 May 03:24:31 03:29:40 60° 288° (WNW) 03:34:48 436.795 MHz FM
ITAMSAT 1 26 May 03:30:19 03:35:25 55° 289° (WNW) 03:40:30 435.822 SSB
Uosat F 26 May 03:39:04 03:43:23 28° 96° (E) 03:47:40 435.120 FM
AO-Echo 26 May 03:42:43 03:47:31 74° 102° (ESE) 03:52:24 ?
TMSAT-1 26 May 03:45:33 03:49:15 19° 92° (E) 03:52:55 436.925 FM
AO-7 26 May 04:05:24 04:08:29 12° 86° (E) 04:11:32 29.400 - 29.500 MHz
Oscar 19 26 May 04:07:33 04:11:26 22° 296° (WNW) 04:15:18 437.125 CW, 437.150 USB
ISS 26 May 04:08:28 04:10:49 18° 349° (N) 04:13:11 145.800 FM
Gurwin Techsat 1B 26 May 04:08:30 04:13:37 45° 99° (E) 04:18:41 435.225 FM
Uribyol 2 26 May 04:11:16 04:15:23 24° 296° (WNW) 04:19:28 436.500 FM
Saudisat 1A 26 May 04:36:03 04:40:17 39° 116° (ESE) 04:44:35 436.775 MHz
KITSAT 1 26 May 04:51:58 04:56:53 17° 24° (NNE) 05:01:46 435.175 FM
Uosat F 26 May 05:17:40 05:22:13 35° 292° (WNW) 05:26:44 435.120 FM
AO-Echo 26 May 05:23:29 05:25:44 13° 299° (WNW) 05:28:01 ?
TMSAT-1 26 May 05:24:20 05:29:31 56° 288° (WNW) 05:34:41 436.925 FM
ISS 26 May 05:46:08 05:48:28 17° 10° (N) 05:50:49 145.800 FM
Gurwin Techsat 1B 26 May 05:49:06 05:53:18 24° 296° (WNW) 05:57:30 435.225 FM
AO-7 26 May 05:54:20 06:02:42 70° 105° (ESE) 06:11:01 29.400 - 29.500 MHz
PCSat 26 May 06:03:23 06:07:59 29° 109° (ESE) 06:12:37 145.825 MHz
STRAND 1 26 May 06:05:13 06:10:12 58° 72° (ENE) 06:15:13 ?
Saudisat 1A 26 May 06:16:10 06:20:06 27° 314° (NW) 06:24:04 436.775 MHz
Oscar 10/S400 26 May 06:18:47 09:19:09 50° 247° (WSW) 16:31:00 145.825 - 145.975 CW/USB, Beacon 145.810 USB
Sapphire 26 May 06:35:46 06:40:59 53° 114° (ESE) 06:46:15 437.095 MHz 1200 baud AX-25 AFSK
KITSAT 1 26 May 06:46:45 06:54:35 48° 50° (NE) 07:02:23 435.175 FM
SO-50 26 May 06:50:53 06:53:44 16° 109° (ESE) 06:56:34 436.795 FM
JAS-1B 26 May 07:19:54 07:22:52 14° 88° (E) 07:25:46 435.800 - 435.900 CW/SSB
ISS 26 May 07:22:31 07:25:47 48° 29° (NNE) 07:29:03 145.800 FM
Hamsat 26 May 07:43:06 07:47:24 54° 100° (E) 07:51:42 145.90 MHz
SO-67 26 May 07:43:22 07:45:32 15° 92° (E) 07:47:42 435.3500 MHz FM
PCSat 26 May 07:46:08 07:51:14 41° 307° (NW) 07:56:23 145.825 MHz
STRAND 1 26 May 07:46:32 07:49:47 17° 269° (W) 07:53:03 ?
AO-7 26 May 07:47:59 07:54:50 30° 305° (NW) 08:01:41 29.400 - 29.500 MHz
Sapphire 26 May 08:20:15 08:24:43 26° 313° (NW) 08:29:14 437.095 MHz 1200 baud AX-25 AFSK
SO-50 26 May 08:29:07 08:33:52 65° 306° (NW) 08:38:35 436.795 FM
KITSAT 1 26 May 08:42:24 08:49:54 43° 250° (WSW) 08:57:23 435.175 FM
ISS 26 May 08:59:38 09:02:18 22° 226° (SW) 09:04:59 145.800 FM
JAS-1B 26 May 09:08:27 09:14:22 70° 288° (WNW) 09:19:59 435.800 - 435.900 CW/SSB
SO-67 26 May 09:15:52 09:19:05 32° 288° (WNW) 09:22:18 435.3500 MHz FM
Hamsat 26 May 09:20:31 09:23:03 15° 296° (WNW) 09:25:35 145.90 MHz
JAS-2 26 May 09:25:15 09:29:44 19° 87° (E) 09:33:51 435.800 - 435.900 CW/SSB, 435.910 FM
UOSAT-12 26 May 09:31:04 09:32:55 12° 108° (ESE) 09:34:46 437.025 FM, 437.400 FM
HO-68 26 May 09:33:43 09:39:57 31° 96° (E) 09:46:08 435.675 MHz FM
Oscar 11 26 May 09:51:34 09:54:46 20° 93° (E) 09:57:57 145.825 FM, Beacon 2401.500 USB
MaSat-1 26 May 10:06:12 10:08:48 21° 52° (NE) 10:11:03 437.345 MHz
SO-50 26 May 10:13:22 10:15:25 13° 326° (NW) 10:17:26 436.795 FM
OPAL 26 May 10:55:48 11:00:23 36° 100° (E) 11:04:55 ?
UOSAT-12 26 May 11:07:57 11:12:27 74° 305° (NW) 11:17:01 437.025 FM, 437.400 FM
JAS-2 26 May 11:08:51 11:15:34 68° 288° (WNW) 11:21:27 435.800 - 435.900 CW/SSB, 435.910 FM
HO-68 26 May 11:20:59 11:27:52 52° 293° (WNW) 11:34:44 435.675 MHz FM
Oscar 11 26 May 11:27:04 11:31:08 38° 289° (WNW) 11:35:10 145.825 FM, Beacon 2401.500 USB
MaSat-1 26 May 11:49:04 11:50:26 13° 258° (WSW) 11:51:43 437.345 MHz
PANSAT 26 May 11:49:23 11:50:34 11° 181° (S) 11:51:45 not established
Oscar 19 26 May 12:11:10 12:11:23 10° 56° (NE) 12:11:35 437.125 CW, 437.150 USB
OPAL 26 May 12:34:58 12:39:09 28° 297° (WNW) 12:43:17 ?
Oscar 16 26 May 12:46:41 12:50:55 26° 65° (ENE) 12:55:09 437.025 USB, Beacon 2401.1428
UOSAT-12 26 May 12:51:18 12:53:27 13° 325° (NW) 12:55:36 437.025 FM, 437.400 FM
JAS-2 26 May 12:56:34 12:59:09 13° 310° (NW) 13:01:38 435.800 - 435.900 CW/SSB, 435.910 FM
Saudisat 1A 26 May 13:02:58 13:07:14 37° 49° (NE) 13:11:25 436.775 MHz
AO-27 26 May 13:04:47 13:09:06 28° 65° (ENE) 13:13:27 436.795 MHz FM
ITAMSAT 1 26 May 13:10:16 13:14:43 30° 66° (ENE) 13:19:12 435.822 SSB
HO-68 26 May 13:12:51 13:13:57 10° 314° (NW) 13:15:02 435.675 MHz FM
AO-Echo 26 May 13:21:22 13:23:02 12° 60° (ENE) 13:24:42 ?
Sapphire 26 May 13:42:55 13:43:45 10° 32° (NNE) 13:44:34 437.095 MHz 1200 baud AX-25 AFSK
Oscar 19 26 May 13:44:37 13:49:48 73° 74° (ENE) 13:55:00 437.125 CW, 437.150 USB
Uribyol 2 26 May 13:49:28 13:54:37 71° 74° (ENE) 13:59:49 436.500 FM
Gurwin Techsat 1B 26 May 13:55:24 13:56:15 10° 56° (NE) 13:57:06 435.225 FM
Oscar 16 26 May 14:25:10 14:30:03 41° 262° (W) 14:34:59 437.025 USB, Beacon 2401.1428
Saudisat 1A 26 May 14:43:01 14:46:46 26° 247° (WSW) 14:50:27 436.775 MHz
AO-27 26 May 14:43:41 14:48:28 38° 262° (W) 14:53:18 436.795 MHz FM
ITAMSAT 1 26 May 14:49:27 14:54:08 34° 263° (W) 14:58:51 435.822 SSB
PCSat 26 May 14:50:26 14:55:08 29° 48° (NE) 14:59:48 145.825 MHz
Uosat F 26 May 14:52:48 14:57:26 40° 69° (ENE) 15:02:06 435.120 FM
AO-Echo 26 May 14:56:22 15:01:12 83° 257° (WSW) 15:05:57 ?
AO-7 26 May 15:04:02 15:10:01 23° 51° (NE) 15:16:01 29.400 - 29.500 MHz
TMSAT-1 26 May 15:06:34 15:11:09 31° 67° (ENE) 15:15:45 436.925 FM
RS-15 26 May 15:09:23 15:20:26 44° 109° (ESE) 15:31:02 29.354 - 29.394 USB, Beacon 29.352 USB
SO-50 26 May 15:21:16 15:24:33 19° 41° (NE) 15:27:48 436.795 FM
Sapphire 26 May 15:23:21 15:28:36 47° 54° (NE) 15:33:49 437.095 MHz 1200 baud AX-25 AFSK
Oscar 19 26 May 15:27:06 15:29:41 14° 271° (W) 15:32:17 437.125 CW, 437.150 USB
Gurwin Techsat 1B 26 May 15:30:00 15:35:17 74° 74° (ENE) 15:40:36 435.225 FM
Uribyol 2 26 May 15:31:58 15:34:38 14° 270° (W) 15:37:20 436.500 FM
Uosat F 26 May 16:32:24 16:36:23 24° 266° (W) 16:40:24 435.120 FM
PCSat 26 May 16:33:35 16:38:45 46° 247° (WSW) 16:43:54 145.825 MHz
TMSAT-1 26 May 16:46:12 16:50:59 35° 263° (W) 16:55:49 436.925 FM
AO-7 26 May 16:53:28 17:01:46 89° 252° (WSW) 17:10:09 29.400 - 29.500 MHz
SO-50 26 May 17:01:06 17:05:37 63° 240° (WSW) 17:10:01 436.795 FM
Sapphire 26 May 17:07:20 17:11:44 26° 252° (WSW) 17:16:07 437.095 MHz 1200 baud AX-25 AFSK
Gurwin Techsat 1B 26 May 17:13:07 17:15:49 14° 271° (W) 17:18:32 435.225 FM
RS-15 26 May 17:20:42 17:32:32 60° 311° (NW) 17:43:53 29.354 - 29.394 USB, Beacon 29.352 USB
UOSAT-12 26 May 17:58:11 18:01:13 17° 39° (NE) 18:04:14 437.025 FM, 437.400 FM
JAS-1B 26 May 18:03:50 18:09:58 23° 60° (ENE) 18:15:27 435.800 - 435.900 CW/SSB
STRAND 1 26 May 18:16:30 18:20:07 19° 92° (E) 18:23:44 ?
Hamsat 26 May 18:37:42 18:41:39 40° 72° (ENE) 18:45:39 145.90 MHz
AO-7 26 May 18:50:21 18:55:36 18° 270° (W) 19:00:55 29.400 - 29.500 MHz
UOSAT-12 26 May 19:37:20 19:41:57 79° 238° (WSW) 19:46:33 437.025 FM, 437.400 FM
RS-15 26 May 19:38:44 19:47:59 26° 341° (NNW) 19:56:58 29.354 - 29.394 USB, Beacon 29.352 USB
JAS-2 26 May 19:39:03 19:42:34 14° 52° (NE) 19:46:02 435.800 - 435.900 CW/SSB, 435.910 FM
JAS-1B 26 May 19:50:51 19:59:55 84° 255° (WSW) 20:07:33 435.800 - 435.900 CW/SSB
SO-67 26 May 19:51:30 19:55:04 86° 256° (WSW) 19:58:40 435.3500 MHz FM
STRAND 1 26 May 19:54:38 19:59:38 53° 289° (WNW) 20:04:37 ?
HO-68 26 May 20:03:32 20:09:10 26° 58° (ENE) 20:14:49 435.675 MHz FM
Hamsat 26 May 20:15:05 20:17:55 17° 268° (W) 20:20:46 145.90 MHz
OPAL 26 May 20:37:55 20:38:04 10° 54° (NE) 20:38:12 ?
Oscar 11 26 May 20:47:59 20:50:50 18° 65° (ENE) 20:53:42 145.825 FM, Beacon 2401.500 USB
KITSAT 1 26 May 21:16:41 21:23:15 29° 106° (ESE) 21:29:52 435.175 FM
JAS-2 26 May 21:18:27 21:26:06 61° 70° (ENE) 21:33:41 435.800 - 435.900 CW/SSB, 435.910 FM
JAS-1B 26 May 21:45:48 21:51:05 17° 270° (W) 21:55:59 435.800 - 435.900 CW/SSB
HO-68 26 May 21:49:14 21:56:18 66° 257° (WSW) 22:03:25 435.675 MHz FM
RS-15 26 May 21:56:46 22:05:39 25° 17° (NNE) 22:14:15 29.354 - 29.394 USB, Beacon 29.352 USB
OPAL 26 May 22:10:54 22:16:03 70° 71° (ENE) 22:21:10 ?
Oscar 11 26 May 22:22:35 22:26:43 44° 261° (W) 22:30:53 145.825 FM, Beacon 2401.500 USB
JAS-2 26 May 23:04:43 23:11:23 31° 268° (W) 23:18:06 435.800 - 435.900 CW/SSB, 435.910 FM
KITSAT 1 26 May 23:10:02 23:18:02 66° 305° (NW) 23:26:08 435.175 FM
OPAL 26 May 23:52:37 23:55:24 15° 267° (W) 23:58:11 ?
ISS 27 May 00:07:19 00:08:24 11° 129° (SE) 00:09:30 145.800 FM
RS-15 27 May 00:10:10 00:21:11 58° 48° (NE) 00:31:50 29.354 - 29.394 USB, Beacon 29.352 USB
MaSat-1 27 May 00:35:49 00:42:24 46° 111° (ESE) 00:47:50 437.345 MHz
KITSAT 1 27 May 01:09:22 01:15:09 21° 329° (NNW) 01:20:57 435.175 FM
ISS 27 May 01:41:20 01:44:38 85° 325° (NW) 01:47:58 145.800 FM
Oscar 19 27 May 01:56:38 02:00:52 25° 94° (E) 02:05:02 437.125 CW, 437.150 USB
Uribyol 2 27 May 02:02:34 02:06:50 25° 94° (E) 02:11:04 436.500 FM
MaSat-1 27 May 02:18:39 02:24:34 33° 303° (WNW) 02:29:28 437.345 MHz

Developed and maintained by Chris Peat, Heavens-Above GmbH. Please read the updated FAQ before sending e-mail. Imprint. DLR
